| time (UTC) | temp C | wind direction | speed KPH | gust KPH | rain 1hr cm | rain 24hr cm | rain mn cm | humidity % | barometer mb |
| 20260510081721 | 23 | 126 | 1.6 | 3.2 | 0.00 | 0.00 | 0.00 | 99 | 1011.9 |
| 20260510081219 | 23 | 168 | 4.8 | 4.8 | 0.00 | 0.00 | 0.00 | 99 | 1011.9 |
| 20260510080719 | 23 | 154 | 0.0 | 1.6 | 0.00 | 0.00 | 0.00 | 99 | 1011.9 |
| 20260510080215 | 23 | 178 | 0.0 | 1.6 | 0.00 | 0.00 | 0.00 | 99 | 1011.9 |
| 20260510075712 | 23 | 145 | 0.0 | 1.6 | 0.00 | 0.00 | 0.00 | 99 | 1012.0 |
| 20260510075210 | 23 | 155 | 0.0 | 3.2 | 0.00 | 0.00 | 0.00 | 99 | 1011.9 |
| 20260510074706 | 23 | 146 | 1.6 | 3.2 | 0.00 | 0.00 | 0.00 | 99 | 1011.8 |
| 20260510074202 | 23 | 129 | 0.0 | 0.0 | 0.00 | 0.00 | 0.00 | 99 | 1011.7 |
| 20260510073659 | 23 | 133 | 0.0 | 1.6 | 0.00 | 0.00 | 0.00 | 99 | 1011.9 |
| 20260510073155 | 23 | 126 | 0.0 | 0.0 | 0.00 | 0.00 | 0.00 | 99 | 1011.8 |
| 20260510072651 | 23 | 158 | 1.6 | 4.8 | 0.00 | 0.00 | 0.00 | 99 | 1011.8 |
| 20260510072148 | 23 | 129 | 0.0 | 0.0 | 0.00 | 0.00 | 0.00 | 99 | 1011.9 |
| 20260510071644 | 23 | 136 | 0.0 | 0.0 | 0.00 | 0.00 | 0.00 | 99 | 1011.8 |
| 20260510071142 | 23 | 134 | 0.0 | 0.0 | 0.00 | 0.00 | 0.00 | 98 | 1011.8 |
| 20260510070639 | 23 | 175 | 4.8 | 4.8 | 0.00 | 0.00 | 0.00 | 99 | 1011.8 |
| 20260510070137 | 23 | 153 | 0.0 | 1.6 | 0.00 | 0.00 | 0.00 | 98 | 1011.8 |
| 20260510065631 | 23 | 170 | 3.2 | 8.0 | 0.00 | 0.00 | 0.00 | 98 | 1011.9 |
| 20260510065128 | 23 | 144 | 1.6 | 3.2 | 0.00 | 0.00 | 0.00 | 98 | 1011.9 |
| 20260510064624 | 23 | 124 | 1.6 | 4.8 | 0.00 | 0.00 | 0.00 | 98 | 1012.1 |
| 20260510064122 | 23 | 153 | 1.6 | 3.2 | 0.00 | 0.00 | 0.00 | 98 | 1012.2 |
| 20260510063618 | 23 | 134 | 1.6 | 3.2 | 0.00 | 0.00 | 0.00 | 98 | 1012.4 |
| 20260510063115 | 23 | 160 | 1.6 | 3.2 | 0.00 | 0.00 | 0.00 | 98 | 1012.3 |
| 20260510062610 | 23 | 149 | 0.0 | 0.0 | 0.00 | 0.00 | 0.00 | 98 | 1012.4 |
| 20260510062106 | 23 | 172 | 1.6 | 3.2 | 0.00 | 0.00 | 0.00 | 97 | 1012.4 |
| 20260510061603 | 23 | 140 | 3.2 | 4.8 | 0.00 | 0.00 | 0.00 | 97 | 1012.5 |
| 20260510061100 | 23 | 142 | 1.6 | 1.6 | 0.00 | 0.00 | 0.00 | 97 | 1012.5 |
| 20260510060555 | 23 | 140 | 0.0 | 1.6 | 0.00 | 0.00 | 0.00 | 97 | 1012.5 |
| 20260510060052 | 23 | 149 | 3.2 | 3.2 | 0.00 | 0.00 | 0.00 | 96 | 1012.5 |
| 20260510055548 | 23 | 142 | 3.2 | 3.2 | 0.00 | 0.00 | 0.00 | 96 | 1012.5 |
| 20260510055047 | 23 | 146 | 4.8 | 4.8 | 0.00 | 0.00 | 0.00 | 96 | 1012.5 |
| 20260510054542 | 23 | 136 | 1.6 | 3.2 | 0.00 | 0.00 | 0.00 | 96 | 1012.4 |
| 20260510054037 | 23 | 150 | 3.2 | 3.2 | 0.00 | 0.00 | 0.00 | 95 | 1012.6 |
| 20260510053532 | 23 | 165 | 4.8 | 8.0 | 0.00 | 0.00 | 0.00 | 95 | 1012.6 |
| 20260510053029 | 24 | 170 | 4.8 | 8.0 | 0.00 | 0.00 | 0.00 | 95 | 1012.5 |
| 20260510052525 | 24 | 142 | 0.0 | 0.0 | 0.00 | 0.00 | 0.00 | 95 | 1012.7 |
| 20260510052021 | 24 | 130 | 1.6 | 3.2 | 0.00 | 0.00 | 0.00 | 96 | 1012.8 |
| 20260510051517 | 24 | 144 | 0.0 | 0.0 | 0.00 | 0.00 | 0.00 | 96 | 1012.8 |
| 20260510051014 | 24 | 165 | 1.6 | 3.2 | 0.00 | 0.00 | 0.00 | 96 | 1012.6 |
| 20260510050511 | 24 | 126 | 1.6 | 3.2 | 0.00 | 0.00 | 0.00 | 96 | 1012.8 |
| 20260510050008 | 24 | 135 | 0.0 | 1.6 | 0.00 | 0.00 | 0.00 | 97 | 1013.0 |
| 20260510045505 | 24 | 137 | 3.2 | 3.2 | 0.00 | 0.00 | 0.00 | 97 | 1012.8 |
| 20260510045001 | 24 | 133 | 3.2 | 4.8 | 0.00 | 0.00 | 0.00 | 97 | 1012.9 |
| 20260510044458 | 24 | 137 | 4.8 | 4.8 | 0.00 | 0.00 | 0.00 | 97 | 1012.7 |
| 20260510043956 | 24 | 126 | 6.4 | 8.0 | 0.00 | 0.00 | 0.00 | 97 | 1012.8 |
| 20260510043451 | 24 | 167 | 1.6 | 3.2 | 0.00 | 0.00 | 0.00 | 97 | 1013.1 |
| 20260510042949 | 24 | 133 | 0.0 | 1.6 | 0.00 | 0.00 | 0.00 | 97 | 1013.2 |
| 20260510042445 | 24 | 128 | 1.6 | 3.2 | 0.00 | 0.00 | 0.00 | 97 | 1013.1 |
| 20260510041941 | 24 | 129 | 0.0 | 1.6 | 0.00 | 0.00 | 0.00 | 97 | 1013.2 |
| 20260510041438 | 24 | 138 | 0.0 | 0.0 | 0.00 | 0.00 | 0.00 | 97 | 1013.1 |
| 20260510040936 | 24 | 121 | 0.0 | 0.0 | 0.00 | 0.00 | 0.00 | 97 | 1013.2 |
| 20260510040432 | 24 | 141 | 3.2 | 3.2 | 0.00 | 0.00 | 0.00 | 97 | 1013.1 |
| 20260510035928 | 24 | 131 | 3.2 | 3.2 | 0.00 | 0.00 | 0.00 | 96 | 1013.0 |
| 20260510035425 | 24 | 155 | 1.6 | 3.2 | 0.00 | 0.00 | 0.00 | 96 | 1012.9 |
| 20260510034924 | 24 | 139 | 4.8 | 4.8 | 0.00 | 0.00 | 0.00 | 96 | 1012.9 |
| 20260510034424 | 24 | 147 | 3.2 | 4.8 | 0.00 | 0.00 | 0.00 | 96 | 1012.9 |
| 20260510033919 | 25 | 149 | 1.6 | 3.2 | 0.00 | 0.00 | 0.00 | 96 | 1013.1 |
| 20260510033416 | 25 | 152 | 1.6 | 3.2 | 0.00 | 0.00 | 0.00 | 96 | 1013.2 |
| 20260510032912 | 25 | 133 | 4.8 | 8.0 | 0.00 | 0.00 | 0.00 | 96 | 1013.0 |
| 20260510032409 | 25 | 134 | 0.0 | 0.0 | 0.00 | 0.00 | 0.00 | 96 | 1013.0 |
| 20260510031905 | 25 | 142 | 0.0 | 0.0 | 0.00 | 0.00 | 0.00 | 95 | 1013.1 |
| 20260510031400 | 25 | 158 | 0.0 | 0.0 | 0.00 | 0.00 | 0.00 | 95 | 1013.1 |
| 20260510030900 | 25 | 136 | 0.0 | 0.0 | 0.00 | 0.00 | 0.00 | 95 | 1012.9 |
| 20260510030357 | 24 | 145 | 0.0 | 0.0 | 0.00 | 0.00 | 0.00 | 95 | 1012.8 |
| 20260510025855 | 24 | 186 | 1.6 | 1.6 | 0.00 | 0.00 | 0.00 | 94 | 1012.7 |
| 20260510025352 | 24 | 132 | 0.0 | 1.6 | 0.00 | 0.00 | 0.00 | 94 | 1012.5 |
| 20260510024849 | 25 | 152 | 1.6 | 1.6 | 0.00 | 0.00 | 0.00 | 94 | 1012.4 |
| 20260510024345 | 25 | 142 | 0.0 | 0.0 | 0.00 | 0.00 | 0.00 | 94 | 1012.3 |
| 20260510023842 | 25 | 137 | 0.0 | 0.0 | 0.00 | 0.00 | 0.00 | 93 | 1012.4 |
| 20260510023338 | 24 | 139 | 1.6 | 1.6 | 0.00 | 0.00 | 0.00 | 93 | 1012.4 |
| 20260510022836 | 25 | 126 | 0.0 | 0.0 | 0.00 | 0.00 | 0.00 | 92 | 1012.5 |
| 20260510022335 | 25 | 152 | 0.0 | 0.0 | 0.00 | 0.00 | 0.00 | 92 | 1011.9 |
| 20260510021834 | 25 | 140 | 0.0 | 1.6 | 0.00 | 0.00 | 0.00 | 92 | 1011.9 |
| 20260510021332 | 25 | 149 | 0.0 | 3.2 | 0.00 | 0.00 | 0.00 | 92 | 1011.9 |
| 20260510020828 | 25 | 138 | 1.6 | 1.6 | 0.00 | 0.00 | 0.00 | 92 | 1011.6 |
| 20260510020323 | 25 | 142 | 0.0 | 0.0 | 0.00 | 0.00 | 0.00 | 92 | 1011.3 |
| 20260510015819 | 25 | 146 | 1.6 | 3.2 | 0.00 | 0.00 | 0.00 | 92 | 1011.4 |
| 20260510015315 | 25 | 130 | 0.0 | 0.0 | 0.00 | 0.00 | 0.00 | 92 | 1011.2 |
| 20260510014816 | 25 | 113 | 4.8 | 8.0 | 0.00 | 0.00 | 0.00 | 92 | 1010.9 |
| 20260510014313 | 25 | 139 | 1.6 | 1.6 | 0.00 | 0.00 | 0.00 | 91 | 1011.0 |
| 20260510013809 | 25 | 147 | 0.0 | 0.0 | 0.00 | 0.00 | 0.00 | 91 | 1011.1 |
| 20260510013305 | 25 | 137 | 0.0 | 0.0 | 0.00 | 0.00 | 0.00 | 91 | 1011.1 |
| 20260510012800 | 25 | 140 | 0.0 | 1.6 | 0.00 | 0.00 | 0.00 | 91 | 1010.8 |
| 20260510012255 | 25 | 152 | 3.2 | 3.2 | 0.00 | 0.00 | 0.00 | 90 | 1010.5 |
| 20260510011755 | 25 | 142 | 0.0 | 0.0 | 0.00 | 0.00 | 0.00 | 90 | 1010.4 |
| 20260510011251 | 25 | 136 | 1.6 | 1.6 | 0.00 | 0.00 | 0.00 | 90 | 1009.9 |
| 20260510010748 | 25 | 153 | 4.8 | 8.0 | 0.00 | 0.00 | 0.00 | 89 | 1010.0 |
| 20260510010244 | 26 | 151 | 1.6 | 1.6 | 0.00 | 0.00 | 0.00 | 89 | 1010.1 |
| 20260510005741 | 26 | 147 | 1.6 | 1.6 | 0.00 | 0.00 | 0.00 | 88 | 1010.3 |
| 20260510005237 | 26 | 133 | 0.0 | 0.0 | 0.00 | 0.00 | 0.00 | 87 | 1010.1 |
| 20260510004735 | 26 | 138 | 1.6 | 1.6 | 0.00 | 0.00 | 0.00 | 86 | 1010.2 |
| 20260510004233 | 26 | 135 | 1.6 | 1.6 | 0.00 | 0.00 | 0.00 | 85 | 1010.1 |
| 20260510003730 | 26 | 114 | 4.8 | 8.0 | 0.00 | 0.00 | 0.00 | 84 | 1010.3 |
| 20260510003226 | 26 | 137 | 0.0 | 1.6 | 0.00 | 0.00 | 0.00 | 83 | 1010.2 |
| 20260510002725 | 27 | 144 | 4.8 | 8.0 | 0.00 | 0.00 | 0.00 | 82 | 1010.1 |
| 20260510002223 | 27 | 136 | 1.6 | 3.2 | 0.00 | 0.00 | 0.00 | 80 | 1010.1 |
| 20260510001719 | 27 | 147 | 4.8 | 4.8 | 0.00 | 0.00 | 0.00 | 79 | 1010.1 |
| 20260510001218 | 28 | 190 | 3.2 | 3.2 | 0.00 | 0.00 | 0.00 | 76 | 1010.0 |
| 20260510000714 | 28 | 156 | 1.6 | 3.2 | 0.00 | 0.00 | 0.00 | 74 | 1009.8 |
| 20260510000211 | 30 | 205 | 6.4 | 8.0 | 0.00 | 0.00 | 0.00 | 71 | 1009.8 |
| 20260509235708 | 30 | 174 | 4.8 | 9.7 | 0.00 | 0.00 | 0.00 | 67 | 1009.7 |
| 20260509235204 | 31 | 124 | 3.2 | 3.2 | 0.00 | 0.00 | 0.00 | 63 | 1009.6 |
| 20260509234700 | 32 | 171 | 1.6 | 3.2 | 0.00 | 0.00 | 0.00 | 59 | 1009.6 |
| 20260509234157 | 32 | 155 | 4.8 | 4.8 | 0.00 | 0.00 | 0.00 | 60 | 1009.5 |
| 20260509233655 | 32 | 138 | 4.8 | 4.8 | 0.00 | 0.00 | 0.00 | 58 | 1009.6 |
| 20260509233153 | 32 | 175 | 6.4 | 8.0 | 0.00 | 0.00 | 0.00 | 59 | 1009.4 |
| 20260509232649 | 33 | 153 | 1.6 | 3.2 | 0.00 | 0.00 | 0.00 | 57 | 1009.6 |
| 20260509232146 | 33 | 144 | 4.8 | 4.8 | 0.00 | 0.00 | 0.00 | 57 | 1009.6 |
| 20260509231642 | 34 | 135 | 3.2 | 4.8 | 0.00 | 0.00 | 0.00 | 54 | 1009.4 |
| 20260509231140 | 34 | 137 | 3.2 | 3.2 | 0.00 | 0.00 | 0.00 | 57 | 1009.6 |
| 20260509230637 | 33 | 152 | 1.6 | 3.2 | 0.00 | 0.00 | 0.00 | 57 | 1009.4 |
| 20260509230134 | 33 | 127 | 4.8 | 4.8 | 0.00 | 0.00 | 0.00 | 59 | 1009.5 |
| 20260509225629 | 34 | 160 | 4.8 | 8.0 | 0.00 | 0.00 | 0.00 | 58 | 1009.4 |
| 20260509225125 | 34 | 148 | 6.4 | 8.0 | 0.00 | 0.00 | 0.00 | 58 | 1009.4 |
| 20260509224620 | 34 | 153 | 1.6 | 3.2 | 0.00 | 0.00 | 0.00 | 52 | 1009.4 |
| 20260509224118 | 35 | 161 | 4.8 | 4.8 | 0.00 | 0.00 | 0.00 | 48 | 1009.3 |
| 20260509223615 | 34 | 156 | 3.2 | 4.8 | 0.00 | 0.00 | 0.00 | 52 | 1009.4 |
| 20260509223112 | 35 | 151 | 4.8 | 8.0 | 0.00 | 0.00 | 0.00 | 51 | 1009.3 |
| 20260509222608 | 35 | 95 | 3.2 | 4.8 | 0.00 | 0.00 | 0.00 | 51 | 1009.3 |
| 20260509222104 | 35 | 147 | 3.2 | 3.2 | 0.00 | 0.00 | 0.00 | 50 | 1009.3 |
| 20260509221600 | 35 | 147 | 3.2 | 3.2 | 0.00 | 0.00 | 0.00 | 49 | 1009.1 |
| 20260509221056 | 35 | 144 | 1.6 | 1.6 | 0.00 | 0.00 | 0.00 | 49 | 1009.1 |
| 20260509220552 | 35 | 150 | 3.2 | 3.2 | 0.00 | 0.00 | 0.00 | 52 | 1009.0 |
| 20260509220049 | 35 | 134 | 4.8 | 4.8 | 0.00 | 0.00 | 0.00 | 51 | 1009.0 |
| 20260509215544 | 36 | 121 | 0.0 | 0.0 | 0.00 | 0.00 | 0.00 | 52 | 1008.9 |
| 20260509215042 | 36 | 133 | 1.6 | 1.6 | 0.00 | 0.00 | 0.00 | 51 | 1009.1 |
| 20260509214539 | 36 | 147 | 0.0 | 0.0 | 0.00 | 0.00 | 0.00 | 54 | 1009.2 |
| 20260509214035 | 35 | 137 | 0.0 | 0.0 | 0.00 | 0.00 | 0.00 | 57 | 1009.0 |
| 20260509213532 | 36 | 171 | 1.6 | 3.2 | 0.00 | 0.00 | 0.00 | 55 | 1008.8 |
| 20260509213029 | 35 | 162 | 0.0 | 0.0 | 0.00 | 0.00 | 0.00 | 57 | 1009.1 |
| 20260509212526 | 35 | 147 | 1.6 | 1.6 | 0.00 | 0.00 | 0.00 | 54 | 1008.9 |
| 20260509212023 | 35 | 54 | 0.0 | 0.0 | 0.00 | 0.00 | 0.00 | 57 | 1008.9 |
| 20260509211518 | 35 | 145 | 0.0 | 0.0 | 0.00 | 0.00 | 0.00 | 54 | 1009.0 |
| 20260509211015 | 35 | 161 | 3.2 | 3.2 | 0.00 | 0.00 | 0.00 | 55 | 1009.0 |
| 20260509210512 | 36 | 149 | 3.2 | 3.2 | 0.00 | 0.00 | 0.00 | 55 | 1009.0 |
| 20260509210008 | 35 | 149 | 0.0 | 0.0 | 0.00 | 0.00 | 0.00 | 59 | 1009.0 |
| 20260509205502 | 33 | 156 | 1.6 | 1.6 | 0.00 | 0.00 | 0.00 | 60 | 1009.2 |
| 20260509204958 | 33 | 152 | 1.6 | 1.6 | 0.00 | 0.00 | 0.00 | 60 | 1009.1 |
| 20260509204454 | 35 | 172 | 0.0 | 0.0 | 0.00 | 0.00 | 0.00 | 56 | 1009.1 |
| 20260509203951 | 35 | 152 | 0.0 | 0.0 | 0.00 | 0.00 | 0.00 | 58 | 1009.2 |
| 20260509203447 | 35 | 156 | 1.6 | 1.6 | 0.00 | 0.00 | 0.00 | 55 | 1009.3 |
| 20260509202945 | 36 | 155 | 0.0 | 0.0 | 0.00 | 0.00 | 0.00 | 58 | 1009.5 |
| 20260509202441 | 35 | 144 | 0.0 | 1.6 | 0.00 | 0.00 | 0.00 | 56 | 1009.4 |
| 20260509201936 | 33 | 148 | 0.0 | 0.0 | 0.00 | 0.00 | 0.00 | 60 | 1009.3 |
| 20260509201431 | 35 | 156 | 0.0 | 0.0 | 0.00 | 0.00 | 0.00 | 60 | 1009.6 |
| 20260509200929 | 35 | 168 | 3.2 | 3.2 | 0.00 | 0.00 | 0.00 | 57 | 1009.5 |
| 20260509200428 | 33 | 135 | 0.0 | 0.0 | 0.00 | 0.00 | 0.00 | 60 | 1009.4 |
| 20260509195925 | 33 | 109 | 3.2 | 3.2 | 0.00 | 0.00 | 0.00 | 57 | 1009.6 |
| 20260509195415 | 35 | 166 | 4.8 | 4.8 | 0.00 | 0.00 | 0.00 | 56 | 1009.6 |
| 20260509194914 | 35 | 161 | 1.6 | 3.2 | 0.00 | 0.00 | 0.00 | 60 | 1009.7 |
| 20260509194410 | 34 | 157 | 0.0 | 0.0 | 0.00 | 0.00 | 0.00 | 57 | 1009.8 |
| 20260509193907 | 34 | 159 | 1.6 | 3.2 | 0.00 | 0.00 | 0.00 | 59 | 1009.8 |
| 20260509193407 | 33 | 152 | 0.0 | 1.6 | 0.00 | 0.00 | 0.00 | 58 | 1009.9 |
| 20260509192903 | 36 | 163 | 0.0 | 0.0 | 0.00 | 0.00 | 0.00 | 55 | 1009.8 |
| 20260509192359 | 35 | 139 | 0.0 | 1.6 | 0.00 | 0.00 | 0.00 | 61 | 1010.1 |
| 20260509191855 | 35 | 189 | 0.0 | 0.0 | 0.00 | 0.00 | 0.00 | 60 | 1009.9 |
| 20260509191351 | 35 | 157 | 0.0 | 0.0 | 0.00 | 0.00 | 0.00 | 62 | 1009.9 |
| 20260509190847 | 33 | 166 | 1.6 | 3.2 | 0.00 | 0.00 | 0.00 | 65 | 1009.9 |
| 20260509190344 | 32 | 150 | 0.0 | 0.0 | 0.00 | 0.00 | 0.00 | 64 | 1010.1 |
| 20260509185841 | 31 | 125 | 3.2 | 4.8 | 0.00 | 0.00 | 0.00 | 68 | 1010.0 |
| 20260509185338 | 32 | 140 | 1.6 | 3.2 | 0.00 | 0.00 | 0.00 | 67 | 1010.0 |
| 20260509184835 | 31 | 93 | 1.6 | 3.2 | 0.00 | 0.00 | 0.00 | 66 | 1010.1 |
| 20260509184332 | 33 | 106 | 1.6 | 3.2 | 0.00 | 0.00 | 0.00 | 68 | 1010.1 |
| 20260509183829 | 33 | 152 | 0.0 | 0.0 | 0.00 | 0.00 | 0.00 | 66 | 1010.2 |
| 20260509183324 | 33 | 144 | 0.0 | 0.0 | 0.00 | 0.00 | 0.00 | 66 | 1010.3 |
| 20260509182820 | 32 | 137 | 0.0 | 0.0 | 0.00 | 0.00 | 0.00 | 70 | 1010.5 |
| 20260509182317 | 31 | 75 | 0.0 | 0.0 | 0.00 | 0.00 | 0.00 | 73 | 1010.5 |
| 20260509181814 | 31 | 128 | 0.0 | 0.0 | 0.00 | 0.00 | 0.00 | 72 | 1010.6 |
| 20260509181313 | 30 | 156 | 1.6 | 3.2 | 0.00 | 0.00 | 0.00 | 72 | 1010.7 |
| 20260509180810 | 30 | 62 | 1.6 | 3.2 | 0.00 | 0.00 | 0.00 | 72 | 1010.8 |
| 20260509180306 | 30 | 133 | 1.6 | 3.2 | 0.00 | 0.00 | 0.00 | 76 | 1010.6 |
| 20260509175802 | 29 | 148 | 0.0 | 0.0 | 0.00 | 0.00 | 0.00 | 80 | 1010.8 |
| 20260509175258 | 28 | 120 | 0.0 | 0.0 | 0.00 | 0.00 | 0.00 | 82 | 1011.0 |
| 20260509174754 | 28 | 165 | 0.0 | 0.0 | 0.00 | 0.00 | 0.00 | 80 | 1011.1 |
| 20260509174249 | 28 | 144 | 0.0 | 0.0 | 0.00 | 0.00 | 0.00 | 79 | 1011.1 |
| 20260509173746 | 28 | 117 | 1.6 | 1.6 | 0.00 | 0.00 | 0.00 | 80 | 1011.3 |
| 20260509173241 | 28 | 163 | 1.6 | 3.2 | 0.00 | 0.00 | 0.00 | 80 | 1011.3 |
| 20260509172738 | 28 | 148 | 3.2 | 4.8 | 0.00 | 0.00 | 0.00 | 81 | 1011.3 |
| 20260509172235 | 28 | 145 | 0.0 | 0.0 | 0.00 | 0.00 | 0.00 | 83 | 1011.4 |
| 20260509171730 | 28 | 90 | 3.2 | 3.2 | 0.00 | 0.00 | 0.00 | 82 | 1011.4 |
| 20260509171226 | 28 | 160 | 0.0 | 1.6 | 0.00 | 0.00 | 0.00 | 81 | 1011.4 |
| 20260509170724 | 28 | 156 | 0.0 | 0.0 | 0.00 | 0.00 | 0.00 | 84 | 1011.3 |
| 20260509170219 | 28 | 134 | 0.0 | 1.6 | 0.00 | 0.00 | 0.00 | 82 | 1011.3 |
| 20260509165718 | 28 | 173 | 0.0 | 0.0 | 0.00 | 0.00 | 0.00 | 83 | 1011.6 |
| 20260509165213 | 28 | 206 | 1.6 | 1.6 | 0.00 | 0.00 | 0.00 | 83 | 1011.5 |
| 20260509164709 | 28 | 104 | 0.0 | 1.6 | 0.00 | 0.00 | 0.00 | 84 | 1011.5 |
| 20260509164205 | 28 | 150 | 0.0 | 1.6 | 0.00 | 0.00 | 0.00 | 85 | 1011.5 |
| 20260509163703 | 28 | 142 | 3.2 | 4.8 | 0.00 | 0.00 | 0.00 | 84 | 1011.6 |
| 20260509163159 | 28 | 170 | 0.0 | 1.6 | 0.00 | 0.00 | 0.00 | 84 | 1011.5 |
| 20260509162657 | 28 | 225 | 1.6 | 3.2 | 0.00 | 0.00 | 0.00 | 85 | 1011.5 |
| 20260509162152 | 28 | 220 | 3.2 | 3.2 | 0.00 | 0.00 | 0.00 | 84 | 1011.4 |
| 20260509161648 | 28 | 145 | 0.0 | 1.6 | 0.00 | 0.00 | 0.00 | 86 | 1011.4 |
| 20260509161144 | 28 | 166 | 0.0 | 1.6 | 0.00 | 0.00 | 0.00 | 87 | 1011.2 |
| 20260509160639 | 28 | 171 | 3.2 | 4.8 | 0.00 | 0.00 | 0.00 | 87 | 1011.2 |
| 20260509160135 | 28 | 160 | 1.6 | 1.6 | 0.00 | 0.00 | 0.00 | 88 | 1011.0 |
| 20260509155632 | 28 | 149 | 1.6 | 1.6 | 0.00 | 0.00 | 0.00 | 89 | 1011.0 |
| 20260509155128 | 28 | 142 | 1.6 | 3.2 | 0.00 | 0.00 | 0.00 | 90 | 1011.3 |
| 20260509154624 | 27 | 147 | 1.6 | 3.2 | 0.00 | 0.00 | 0.00 | 91 | 1011.3 |
| 20260509154121 | 27 | 152 | 1.6 | 1.6 | 0.00 | 0.00 | 0.00 | 94 | 1011.4 |
| 20260509153618 | 26 | 151 | 1.6 | 1.6 | 0.00 | 0.00 | 0.00 | 95 | 1011.7 |
| 20260509153115 | 26 | 155 | 0.0 | 0.0 | 0.00 | 0.00 | 0.00 | 96 | 1011.6 |
| 20260509152610 | 25 | 155 | 0.0 | 0.0 | 0.00 | 0.00 | 0.00 | 96 | 1011.4 |
| 20260509152108 | 25 | 130 | 0.0 | 0.0 | 0.00 | 0.00 | 0.00 | 97 | 1011.6 |
| 20260509151604 | 25 | 164 | 0.0 | 1.6 | 0.00 | 0.00 | 0.00 | 97 | 1011.1 |
| 20260509151102 | 25 | 153 | 4.8 | 4.8 | 0.00 | 0.00 | 0.00 | 98 | 1010.5 |
| 20260509150559 | 25 | 143 | 0.0 | 0.0 | 0.00 | 0.00 | 0.00 | 98 | 1010.8 |
| 20260509150058 | 25 | 142 | 0.0 | 1.6 | 0.00 | 0.00 | 0.00 | 98 | 1011.3 |
| 20260509145553 | 25 | 153 | 0.0 | 0.0 | 0.00 | 0.00 | 0.00 | 99 | 1011.7 |
| 20260509145049 | 25 | 153 | 0.0 | 0.0 | 0.00 | 0.00 | 0.00 | 99 | 1011.8 |
| 20260509144546 | 25 | 142 | 0.0 | 0.0 | 0.00 | 0.00 | 0.00 | 99 | 1011.6 |
| 20260509144043 | 25 | 150 | 0.0 | 0.0 | 0.00 | 0.00 | 0.00 | 99 | 1011.4 |
| 20260509143540 | 25 | 149 | 0.0 | 0.0 | 0.00 | 0.00 | 0.00 | 99 | 1011.7 |
| 20260509143038 | 25 | 165 | 0.0 | 0.0 | 0.00 | 0.00 | 0.00 | 99 | 1011.8 |
| 20260509142533 | 25 | 158 | 0.0 | 0.0 | 0.00 | 0.00 | 0.00 | 99 | 1011.6 |
| 20260509142029 | 25 | 150 | 0.0 | 0.0 | 0.00 | 0.00 | 0.00 | 99 | 1011.3 |
| 20260509141525 | 25 | 148 | 0.0 | 1.6 | 0.00 | 0.00 | 0.00 | 99 | 1011.5 |
| 20260509141022 | 25 | 144 | 0.0 | 0.0 | 0.00 | 0.00 | 0.00 | 99 | 1011.8 |
| 20260509140519 | 25 | 144 | 0.0 | 0.0 | 0.00 | 0.00 | 0.00 | 99 | 1012.0 |
| 20260509140017 | 25 | 243 | 0.0 | 0.0 | 0.00 | 0.00 | 0.00 | 99 | 1011.8 |
| 20260509135514 | 25 | 152 | 0.0 | 0.0 | 0.00 | 0.00 | 0.00 | 99 | 1011.4 |
| 20260509135011 | 25 | 147 | 0.0 | 0.0 | 0.00 | 0.00 | 0.00 | 99 | 1011.3 |
| 20260509134508 | 25 | 144 | 0.0 | 0.0 | 0.00 | 0.00 | 0.00 | 99 | 1011.2 |
| 20260509134006 | 25 | 152 | 0.0 | 0.0 | 0.00 | 0.00 | 0.00 | 99 | 1011.2 |
| 20260509133502 | 25 | 119 | 0.0 | 0.0 | 0.00 | 0.00 | 0.00 | 99 | 1011.5 |
| 20260509133000 | 24 | 142 | 0.0 | 0.0 | 0.00 | 0.00 | 0.00 | 99 | 1011.5 |
| 20260509132458 | 25 | 57 | 0.0 | 1.6 | 0.00 | 0.00 | 0.00 | 99 | 1011.2 |
| 20260509131955 | 25 | 159 | 0.0 | 1.6 | 0.00 | 0.00 | 0.00 | 99 | 1011.2 |
| 20260509131452 | 25 | 152 | 0.0 | 0.0 | 0.00 | 0.00 | 0.00 | 99 | 1011.0 |
| 20260509130949 | 24 | 140 | 0.0 | 0.0 | 0.00 | 0.00 | 0.00 | 99 | 1011.5 |
| 20260509130444 | 24 | 148 | 0.0 | 0.0 | 0.00 | 0.00 | 0.00 | 99 | 1011.4 |
| 20260509125941 | 24 | 168 | 0.0 | 0.0 | 0.00 | 0.00 | 0.00 | 99 | 1011.6 |
| 20260509125438 | 24 | 155 | 0.0 | 0.0 | 0.00 | 0.00 | 0.00 | 99 | 1011.5 |
| 20260509124934 | 23 | 147 | 0.0 | 0.0 | 0.00 | 0.00 | 0.00 | 99 | 1011.5 |
| 20260509124431 | 24 | 154 | 0.0 | 0.0 | 0.00 | 0.00 | 0.00 | 99 | 1011.4 |
| 20260509123928 | 24 | 142 | 0.0 | 0.0 | 0.00 | 0.00 | 0.00 | 99 | 1011.3 |
| 20260509123426 | 24 | 142 | 0.0 | 0.0 | 0.00 | 0.00 | 0.00 | 99 | 1011.2 |
| 20260509122922 | 23 | 146 | 0.0 | 0.0 | 0.00 | 0.00 | 0.00 | 99 | 1011.2 |
| 20260509122419 | 23 | 151 | 0.0 | 0.0 | 0.00 | 0.00 | 0.00 | 99 | 1011.3 |
| 20260509121915 | 23 | 150 | 0.0 | 0.0 | 0.00 | 0.00 | 0.00 | 99 | 1011.4 |
| 20260509121412 | 23 | 146 | 0.0 | 0.0 | 0.00 | 0.00 | 0.00 | 99 | 1011.6 |
| 20260509120911 | 23 | 146 | 0.0 | 0.0 | 0.00 | 0.00 | 0.00 | 99 | 1011.4 |
| 20260509120408 | 23 | 146 | 0.0 | 0.0 | 0.00 | 0.00 | 0.00 | 99 | 1011.5 |
| 20260509115906 | 23 | 140 | 0.0 | 0.0 | 0.00 | 0.00 | 0.00 | 99 | 1011.5 |
| 20260509115403 | 23 | 140 | 0.0 | 0.0 | 0.00 | 0.00 | 0.00 | 99 | 1011.4 |
| 20260509114900 | 23 | 140 | 0.0 | 0.0 | 0.00 | 0.00 | 0.00 | 99 | 1011.3 |
| 20260509114359 | 23 | 140 | 0.0 | 0.0 | 0.00 | 0.00 | 0.00 | 99 | 1011.2 |
| 20260509113858 | 23 | 142 | 0.0 | 0.0 | 0.00 | 0.00 | 0.00 | 99 | 1011.2 |
| 20260509113355 | 23 | 137 | 0.0 | 0.0 | 0.00 | 0.00 | 0.00 | 99 | 1011.3 |
| 20260509112851 | 23 | 148 | 0.0 | 0.0 | 0.00 | 0.00 | 0.00 | 99 | 1011.0 |
| 20260509112348 | 23 | 140 | 0.0 | 0.0 | 0.00 | 0.00 | 0.00 | 99 | 1011.0 |
| 20260509111846 | 23 | 128 | 0.0 | 0.0 | 0.00 | 0.00 | 0.00 | 99 | 1011.1 |
| 20260509111342 | 23 | 136 | 0.0 | 0.0 | 0.00 | 0.00 | 0.00 | 99 | 1011.0 |
| 20260509110840 | 23 | 150 | 0.0 | 0.0 | 0.00 | 0.00 | 0.00 | 99 | 1010.9 |
| 20260509110336 | 23 | 149 | 0.0 | 0.0 | 0.00 | 0.00 | 0.00 | 99 | 1010.9 |
| 20260509105834 | 23 | 149 | 0.0 | 0.0 | 0.00 | 0.00 | 0.00 | 99 | 1010.8 |
| 20260509105332 | 23 | 149 | 0.0 | 0.0 | 0.00 | 0.00 | 0.00 | 99 | 1010.8 |
| 20260509104829 | 23 | 142 | 0.0 | 0.0 | 0.00 | 0.00 | 0.00 | 99 | 1010.7 |
| 20260509104325 | 23 | 140 | 0.0 | 0.0 | 0.00 | 0.00 | 0.00 | 99 | 1010.5 |
| 20260509103823 | 23 | 140 | 0.0 | 0.0 | 0.00 | 0.00 | 0.00 | 99 | 1010.5 |
| 20260509103320 | 23 | 140 | 0.0 | 0.0 | 0.00 | 0.00 | 0.00 | 99 | 1010.7 |
| 20260509102820 | 23 | 81 | 0.0 | 0.0 | 0.00 | 0.00 | 0.00 | 99 | 1010.7 |
| 20260509102316 | 23 | 141 | 0.0 | 0.0 | 0.00 | 0.00 | 0.00 | 99 | 1010.8 |
| 20260509101812 | 23 | 140 | 0.0 | 0.0 | 0.00 | 0.00 | 0.00 | 99 | 1010.4 |
| 20260509101308 | 23 | 140 | 0.0 | 0.0 | 0.00 | 0.00 | 0.00 | 99 | 1010.5 |
| 20260509100806 | 23 | 141 | 0.0 | 0.0 | 0.00 | 0.00 | 0.00 | 99 | 1010.4 |
| 20260509100303 | 23 | 141 | 0.0 | 0.0 | 0.00 | 0.00 | 0.00 | 99 | 1010.6 |
| 20260509095759 | 23 | 144 | 0.0 | 0.0 | 0.00 | 0.00 | 0.00 | 99 | 1010.5 |
| 20260509095257 | 23 | 140 | 0.0 | 0.0 | 0.00 | 0.00 | 0.00 | 99 | 1010.7 |
| 20260509094754 | 23 | 144 | 0.0 | 0.0 | 0.00 | 0.00 | 0.00 | 99 | 1010.6 |
| 20260509094250 | 23 | 144 | 0.0 | 0.0 | 0.00 | 0.00 | 0.00 | 99 | 1010.3 |
| 20260509093748 | 23 | 144 | 0.0 | 0.0 | 0.00 | 0.00 | 0.00 | 99 | 1010.6 |
| 20260509093245 | 23 | 143 | 0.0 | 0.0 | 0.00 | 0.00 | 0.00 | 99 | 1010.3 |
| 20260509092744 | 23 | 143 | 0.0 | 0.0 | 0.00 | 0.00 | 0.00 | 99 | 1010.1 |
| 20260509092241 | 23 | 145 | 0.0 | 0.0 | 0.00 | 0.00 | 0.00 | 99 | 1010.0 |
| 20260509091739 | 23 | 146 | 0.0 | 0.0 | 0.00 | 0.00 | 0.00 | 99 | 1009.8 |
| 20260509091235 | 23 | 147 | 0.0 | 0.0 | 0.00 | 0.00 | 0.00 | 99 | 1009.9 |
| 20260509090733 | 23 | 148 | 0.0 | 0.0 | 0.00 | 0.00 | 0.00 | 99 | 1010.0 |
| 20260509090230 | 23 | 148 | 0.0 | 0.0 | 0.00 | 0.00 | 0.00 | 99 | 1009.8 |
| 20260509085728 | 23 | 142 | 0.0 | 0.0 | 0.00 | 0.00 | 0.00 | 99 | 1009.8 |
| 20260509085225 | 23 | 139 | 0.0 | 0.0 | 0.00 | 0.00 | 0.00 | 99 | 1009.7 |
| 20260509084721 | 23 | 147 | 0.0 | 0.0 | 0.00 | 0.00 | 0.00 | 99 | 1009.9 |
| 20260509084218 | 23 | 147 | 0.0 | 0.0 | 0.00 | 0.00 | 0.00 | 99 | 1009.8 |
| 20260509083716 | 23 | 144 | 0.0 | 0.0 | 0.00 | 0.00 | 0.00 | 99 | 1010.2 |
| 20260509083212 | 22 | 145 | 0.0 | 0.0 | 0.00 | 0.00 | 0.00 | 99 | 1010.2 |
| 20260509082709 | 22 | 129 | 0.0 | 0.0 | 0.00 | 0.00 | 0.00 | 99 | 1010.1 |
| 20260509082206 | 22 | 145 | 0.0 | 0.0 | 0.00 | 0.00 | 0.00 | 99 | 1010.4 |